Time,TemperatureF,DewpointF,PressureIn,WindDirection,WindDirectionDegrees,WindSpeedMPH,WindSpeedGustMPH,Humidity,HourlyPrecipIn,Conditions,Clouds,dailyrainin,SoftwareType,DateUTC
2013-11-30 00:01:00,46.0,45.0,-100.00,SSW,201,1.0,-999.0,96,0.00,,,-99.99,,2013-11-30 08:01:00,
2013-11-30 00:11:00,46.0,45.0,-100.00,SSW,201,1.0,-999.0,96,0.00,,,-99.99,,2013-11-30 08:11:00,
2013-11-30 00:22:00,46.0,45.0,-100.00,SSW,201,1.0,-999.0,96,0.00,,,-99.99,,2013-11-30 08:22:00,
2013-11-30 00:30:00,45.0,45.0,30.36,SW,224,1.0,2.0,97,0.00,,,-99.99,,2013-11-30 08:30:00,
2013-11-30 01:11:00,45.0,45.0,30.36,SW,224,1.0,2.0,97,0.00,,,-99.99,,2013-11-30 09:11:00,
2013-11-30 01:21:00,45.0,45.0,30.36,SW,224,1.0,2.0,97,0.00,,,-99.99,,2013-11-30 09:21:00,
2013-11-30 01:30:00,47.0,46.0,30.34,West,279,1.0,2.0,96,0.00,,,-99.99,,2013-11-30 09:30:00,
2013-11-30 02:12:00,47.0,46.0,30.34,West,279,1.0,2.0,96,0.00,,,-99.99,,2013-11-30 10:12:00,
2013-11-30 02:22:00,47.0,46.0,30.34,West,279,1.0,2.0,96,0.00,,,-99.99,,2013-11-30 10:22:00,
2013-11-30 02:30:00,45.0,44.0,30.35,WSW,242,1.0,2.0,97,0.00,,,-99.99,,2013-11-30 10:30:00,
2013-11-30 03:12:00,45.0,44.0,30.35,WSW,242,1.0,2.0,97,0.00,,,-99.99,,2013-11-30 11:12:00,
2013-11-30 03:21:00,45.0,44.0,30.35,WSW,242,1.0,2.0,97,0.00,,,-99.99,,2013-11-30 11:21:00,
2013-11-30 03:30:00,45.0,44.0,30.36,West,269,0.0,1.0,97,0.01,,,-99.99,,2013-11-30 11:30:00,
2013-11-30 04:11:00,45.0,44.0,30.36,West,269,0.0,1.0,97,0.01,,,-99.99,,2013-11-30 12:11:00,
2013-11-30 04:22:00,45.0,44.0,30.36,West,269,0.0,1.0,97,0.01,,,-99.99,,2013-11-30 12:22:00,
2013-11-30 04:30:00,44.0,44.0,30.36,SW,235,0.0,1.0,97,0.00,,,-99.99,,2013-11-30 12:30:00,
2013-11-30 05:11:00,44.0,44.0,30.36,SW,235,0.0,1.0,97,0.00,,,-99.99,,2013-11-30 13:11:00,
2013-11-30 05:21:00,44.0,44.0,30.36,SW,235,0.0,1.0,97,0.00,,,-99.99,,2013-11-30 13:21:00,
2013-11-30 05:30:00,43.0,42.0,30.36,SW,218,0.0,1.0,98,0.00,,,-99.99,,2013-11-30 13:30:00,
2013-11-30 06:12:00,43.0,42.0,30.36,SW,218,0.0,1.0,98,0.00,,,-99.99,,2013-11-30 14:12:00,
2013-11-30 06:22:00,43.0,42.0,30.36,SW,218,0.0,1.0,98,0.00,,,-99.99,,2013-11-30 14:22:00,
2013-11-30 06:30:00,42.0,41.0,30.36,South,172,1.0,3.0,98,0.00,,,-99.99,,2013-11-30 14:30:00,
2013-11-30 07:11:00,42.0,41.0,30.36,South,172,1.0,3.0,98,0.00,,,-99.99,,2013-11-30 15:11:00,
2013-11-30 07:21:00,42.0,41.0,30.36,South,172,1.0,3.0,98,0.00,,,-99.99,,2013-11-30 15:21:00,
2013-11-30 07:30:00,42.0,41.0,30.39,South,185,1.0,3.0,98,0.00,,,-99.99,,2013-11-30 15:30:00,
2013-11-30 07:54:00,42.0,41.0,-100.00,South,185,1.0,-999.0,98,0.00,,,-99.99,,2013-11-30 15:54:00,
2013-11-30 08:13:00,42.0,41.0,30.39,South,185,1.0,3.0,98,0.00,,,-99.99,,2013-11-30 16:13:00,
2013-11-30 08:23:00,42.0,41.0,30.39,South,185,1.0,3.0,98,0.00,,,-99.99,,2013-11-30 16:23:00,
2013-11-30 08:30:00,42.0,41.0,30.40,South,175,1.0,3.0,98,0.00,,,-99.99,,2013-11-30 16:30:00,
2013-11-30 09:11:00,42.0,41.0,30.40,South,175,1.0,3.0,98,0.00,,,-99.99,,2013-11-30 17:11:00,
2013-11-30 09:22:00,42.0,41.0,30.40,South,175,1.0,3.0,98,0.00,,,-99.99,,2013-11-30 17:22:00,
2013-11-30 09:30:00,42.0,41.0,30.39,South,178,1.0,6.0,98,0.00,,,-99.99,,2013-11-30 17:30:00,
2013-11-30 10:12:00,42.0,41.0,30.39,South,178,1.0,6.0,98,0.00,,,-99.99,,2013-11-30 18:12:00,
2013-11-30 10:21:00,42.0,41.0,30.39,South,178,1.0,6.0,98,0.00,,,-99.99,,2013-11-30 18:21:00,
2013-11-30 10:30:00,44.0,43.0,30.40,SSE,157,1.0,5.0,98,0.00,,,-99.99,,2013-11-30 18:30:00,
2013-11-30 11:11:00,44.0,43.0,30.40,SSE,157,1.0,5.0,98,0.00,,,-99.99,,2013-11-30 19:11:00,
2013-11-30 11:21:00,44.0,43.0,30.40,SSE,157,1.0,5.0,98,0.00,,,-99.99,,2013-11-30 19:21:00,
2013-11-30 11:30:00,47.0,46.0,30.38,SSE,157,1.0,6.0,97,0.00,,,-99.99,,2013-11-30 19:30:00,
2013-11-30 12:11:00,47.0,46.0,30.38,SSE,157,1.0,6.0,97,0.00,,,-99.99,,2013-11-30 20:11:00,
2013-11-30 12:22:00,47.0,46.0,30.38,SSE,157,1.0,6.0,97,0.00,,,-99.99,,2013-11-30 20:22:00,
2013-11-30 12:30:00,50.0,47.0,30.38,NNW,340,1.0,5.0,90,0.00,,,-99.99,,2013-11-30 20:30:00,
2013-11-30 13:11:00,50.0,47.0,30.38,NNW,340,1.0,5.0,90,0.00,,,-99.99,,2013-11-30 21:11:00,
2013-11-30 13:21:00,50.0,47.0,30.38,NNW,340,1.0,5.0,90,0.00,,,-99.99,,2013-11-30 21:21:00,
2013-11-30 13:30:00,50.0,45.0,30.36,NNE,19,3.0,4.0,84,0.00,,,-99.99,,2013-11-30 21:30:00,
2013-11-30 14:12:00,50.0,45.0,30.36,NNE,19,3.0,4.0,84,0.00,,,-99.99,,2013-11-30 22:12:00,
2013-11-30 14:23:00,50.0,45.0,30.36,NNE,19,3.0,4.0,84,0.00,,,-99.99,,2013-11-30 22:23:00,
2013-11-30 14:30:00,51.0,46.0,30.36,North,3,2.0,5.0,83,0.00,,,-99.99,,2013-11-30 22:30:00,
2013-11-30 15:12:00,51.0,46.0,30.36,North,3,2.0,5.0,83,0.00,,,-99.99,,2013-11-30 23:12:00,
2013-11-30 15:22:00,51.0,46.0,30.36,North,3,2.0,5.0,83,0.00,,,-99.99,,2013-11-30 23:22:00,
2013-11-30 15:30:00,49.0,46.0,30.35,North,10,1.0,3.0,87,0.00,,,-99.99,,2013-11-30 23:30:00,
2013-11-30 16:11:00,49.0,46.0,30.35,North,10,1.0,3.0,87,0.00,,,-99.99,,2013-12-01 00:11:00,
2013-11-30 16:21:00,49.0,46.0,30.35,North,10,1.0,3.0,87,0.00,,,-99.99,,2013-12-01 00:21:00,
2013-11-30 16:30:00,49.0,46.0,30.36,SSW,212,0.0,1.0,89,0.00,,,-99.99,,2013-12-01 00:30:00,
2013-11-30 16:52:00,49.0,46.0,30.36,SSW,212,0.0,1.0,89,0.00,,,-99.99,,2013-12-01 00:52:00,
2013-11-30 17:01:00,49.0,46.0,30.36,SSW,212,0.0,1.0,89,0.00,,,-99.99,,2013-12-01 01:01:00,
2013-11-30 17:11:00,49.0,46.0,30.36,SSW,212,0.0,1.0,89,0.00,,,-99.99,,2013-12-01 01:11:00,
2013-11-30 17:21:00,49.0,46.0,30.36,SSW,212,0.0,1.0,89,0.00,,,-99.99,,2013-12-01 01:21:00,
2013-11-30 17:30:00,47.0,45.0,30.36,SSW,202,0.0,1.0,92,0.00,,,-99.99,,2013-12-01 01:30:00,
2013-11-30 18:11:00,47.0,45.0,30.36,SSW,202,0.0,1.0,92,0.00,,,-99.99,,2013-12-01 02:11:00,
2013-11-30 18:21:00,47.0,45.0,30.36,SSW,202,0.0,1.0,92,0.00,,,-99.99,,2013-12-01 02:21:00,
2013-11-30 18:30:00,47.0,45.0,30.35,SSW,193,1.0,4.0,93,0.00,,,-99.99,,2013-12-01 02:30:00,
2013-11-30 19:11:00,47.0,45.0,30.35,SSW,193,1.0,4.0,93,0.00,,,-99.99,,2013-12-01 03:11:00,
2013-11-30 19:21:00,47.0,45.0,30.35,SSW,193,1.0,4.0,93,0.00,,,-99.99,,2013-12-01 03:21:00,
2013-11-30 19:30:00,47.0,45.0,30.36,South,173,0.0,2.0,93,0.00,,,-99.99,,2013-12-01 03:30:00,
2013-11-30 20:02:00,-999.0,-99.9,30.36,South,173,0.0,2.0,-999,0.00,,,-99.99,,2013-12-01 04:02:00,
2013-11-30 20:12:00,47.0,45.0,30.36,South,173,0.0,2.0,93,0.00,,,-99.99,,2013-12-01 04:12:00,
2013-11-30 20:22:00,47.0,45.0,30.36,South,173,0.0,2.0,93,0.00,,,-99.99,,2013-12-01 04:22:00,
2013-11-30 20:30:00,47.0,45.0,30.34,SSW,204,2.0,4.0,93,0.00,,,-99.99,,2013-12-01 04:30:00,
2013-11-30 20:52:00,47.0,45.0,30.34,SSW,204,2.0,4.0,93,0.00,,,-99.99,,2013-12-01 04:52:00,
2013-11-30 21:02:00,47.0,45.0,30.34,SSW,204,2.0,4.0,93,0.00,,,-99.99,,2013-12-01 05:02:00,
2013-11-30 21:12:00,47.0,45.0,30.34,SSW,204,2.0,4.0,93,0.00,,,-99.99,,2013-12-01 05:12:00,
2013-11-30 21:22:00,47.0,45.0,30.34,SSW,204,2.0,4.0,93,0.00,,,-99.99,,2013-12-01 05:22:00,
2013-11-30 21:30:00,48.0,46.0,30.35,South,176,2.0,8.0,93,0.00,,,-99.99,,2013-12-01 05:30:00,
2013-11-30 21:53:00,48.0,46.0,30.35,South,176,2.0,8.0,93,0.00,,,-99.99,,2013-12-01 05:53:00,
2013-11-30 22:02:00,48.0,46.0,30.35,South,176,2.0,8.0,93,0.00,,,-99.99,,2013-12-01 06:02:00,
2013-11-30 22:12:00,48.0,46.0,30.35,South,176,2.0,8.0,93,0.00,,,-99.99,,2013-12-01 06:12:00,
2013-11-30 22:22:00,48.0,46.0,30.35,South,176,2.0,8.0,93,0.00,,,-99.99,,2013-12-01 06:22:00,
2013-11-30 22:30:00,48.0,46.0,30.34,SW,214,3.0,9.0,92,0.00,,,-99.99,,2013-12-01 06:30:00,
2013-11-30 23:12:00,48.0,46.0,30.34,SW,214,3.0,9.0,92,0.00,,,-99.99,,2013-12-01 07:12:00,
2013-11-30 23:22:00,48.0,46.0,30.34,SW,214,3.0,9.0,92,0.00,,,-99.99,,2013-12-01 07:22:00,
2013-11-30 23:30:00,49.0,46.0,30.34,SSE,168,0.0,3.0,92,0.00,,,-99.99,,2013-12-01 07:30:00,